Location: Skalnate Pleso
(49.1889°N, 20.2450°E)
Time: 22:50:14
(UTC+01:00)

Cosmos 1605 Rocket - Visible Passes

Search period start: 21 February 2020 00:00
Search period end: 02 March 2020 00:00
Orbit: 945 x 1005 km, 82.9° (Epoch: 21 February)

Date Brightness Start Highest point End Pass type
(mag) Time Alt. Az. Time Alt. Az. Time Alt. Az.
21 Feb 6.7 01:33:53 10° NNE 01:36:16 12° NE 01:38:38 10° ENE visible
21 Feb 4.4 03:16:57 10° N 03:23:08 60° ENE 03:29:11 10° SSE visible
21 Feb 4.8 05:03:04 10° NNW 05:08:03 26° W 05:12:57 10° SW visible
21 Feb 6.6 18:39:23 10° W 18:43:31 18° WNW 18:47:39 10° NNW visible
22 Feb 6.2 01:57:51 10° NNE 02:02:18 20° ENE 02:06:10 12° ESE visible
22 Feb 3.8 03:42:16 10° N 03:48:32 83° W 03:50:30 46° S visible
22 Feb 5.4 05:29:35 10° NW 05:32:53 15° WNW 05:34:52 13° W visible
22 Feb 7.0 19:08:21 10° WNW 19:09:37 11° NW 19:10:53 10° NW visible
23 Feb 5.5 02:22:37 10° N 02:28:08 32° ENE 02:28:59 31° E visible
23 Feb 4.1 04:07:49 10° NNW 04:13:32 49° W 04:13:32 49° W visible
23 Feb 6.0 17:42:37 10° SW 17:48:13 32° WNW 17:53:49 10° N visible
24 Feb 6.7 01:05:38 10° NE 01:06:43 10° NE 01:07:47 10° ENE visible
24 Feb 4.7 02:47:40 10° N 02:53:03 50° NE 02:53:03 50° NE visible
24 Feb 4.9 04:33:36 10° NNW 04:37:39 28° WNW 04:37:39 28° WNW visible
24 Feb 6.6 18:09:32 10° WSW 18:14:02 20° WNW 18:18:34 10° NNW visible
25 Feb 6.3 01:28:48 10° NNE 01:32:48 17° ENE 01:32:54 17° ENE visible
25 Feb 4.4 03:12:58 10° N 03:17:31 51° N 03:17:31 51° N visible
25 Feb 5.5 04:59:52 10° NW 05:02:07 16° WNW 05:02:07 16° WNW visible
25 Feb 6.8 18:37:40 10° WNW 18:40:05 12° NW 18:42:29 10° NNW visible
26 Feb 5.8 01:53:25 10° N 01:57:32 26° NE 01:57:32 26° NE visible
26 Feb 4.8 03:38:26 10° NNW 03:42:09 36° NNW 03:42:09 36° NNW visible
27 Feb 5.3 02:18:25 10° N 02:22:17 34° NNE 02:22:17 34° NNE visible
27 Feb 5.2 04:04:07 10° NNW 04:06:54 24° NW 04:06:54 24° NW visible
27 Feb 6.5 17:39:43 10° WSW 17:44:35 22° WNW 17:49:26 10° NNW visible
28 Feb 6.4 00:59:49 10° NNE 01:02:29 15° NE 01:02:29 15° NE visible
28 Feb 5.1 02:43:39 10° N 02:47:07 35° N 02:47:07 35° N visible
28 Feb 5.7 04:30:14 10° NW 04:31:45 15° NW 04:31:45 15° NW visible
28 Feb 6.7 18:07:26 10° W 18:10:34 14° NW 18:13:42 10° NNW visible
29 Feb 6.0 01:24:16 10° N 01:27:22 21° NE 01:27:22 21° NE visible
29 Feb 5.2 03:09:04 10° NNW 03:12:00 29° NNW 03:12:00 29° NNW visible
01 Mar 5.7 01:49:11 10° N 01:52:18 27° NNE 01:52:18 27° NNE visible
01 Mar 5.5 03:34:41 10° NNW 03:36:57 22° NW 03:36:57 22° NW visible
